Regional Weather Roundup
Issued by NWS

Home | Current Version | Previous Version | Text Only | Print | Product List | Glossary Off
Versions: 1 2 3 4 5 6 7 8 9 10 11 12 13 14 15 16 17 18 19 20 21 22 23 24 25 26 27 28 29 30 31 32 33 34 35 36 37 38 39 40 41 42 43 44 45 46 47 48 49 50

000
ASUS43 KLMK 200910
RWRKY
KENTUCKY REGIONAL WEATHER ROUNDUP
NATIONAL WEATHER SERVICE LOUISVILLE KY
500 AM EDT MON OCT 20 2014

NOTE "FAIR" INDICATES FEW OR NO CLOUDS BELOW 12,000 FEET
WITH NO SIGNIFICANT WEATHER AND/OR OBSTRUCTIONS TO VISIBILITY.

KYZ001>023-026-027-061>063-070>075-201000-
WESTERN AND SOUTH CENTRAL KENTUCKY

CITY           SKY/WX    TMP DP  RH WIND       PRES   REMARKS
PADUCAH        MOCLDY    49  45  86 SW3       30.05S
HENDERSON      CLOUDY    48  45  87 SW5       30.04F
OWENSBORO      CLOUDY    47  46  96 S5        30.05F
HOPKINSVILLE   MOCLDY    47  47  99 SW1       30.06S
BOWLING GREEN  MOCLDY    44  41  89 CALM      30.07S
GLASGOW        CLEAR     41  41 100 CALM      30.07R
$$

KYZ024-025-028>034-038-045-046-053-201000-
NORTH CENTRAL KENTUCKY

CITY           SKY/WX    TMP DP  RH WIND       PRES   REMARKS
LOUISVILLE/SDF PTCLDY    46  43  89 SE6       30.05S
LOUISVILLE/LOU MOCLDY    45  43  93 CALM      30.05F
FORT KNOX      MOCLDY    44  42  92 SE2       30.04S
$$

KYZ035>037-039>044-047>052-055>060-089>105-201000-
NORTHEAST KENTUCKY

CITY           SKY/WX    TMP DP  RH WIND       PRES   REMARKS
LEXINGTON      CLOUDY    47  41  80 S6        30.05S
COVINGTON      CLOUDY    46  41  82 S6        30.02F
FRANKFORT      CLOUDY    44  41  89 CALM      30.05S
$$

KYZ054-064>069-076>088-106>120-201000-
SOUTHEAST KENTUCKY

CITY           SKY/WX    TMP DP  RH WIND       PRES   REMARKS
JACKSON        MOCLDY    42  39  89 CALM      30.06R
LONDON         MOCLDY    43  40  89 CALM      30.07S
SOMERSET       MOCLDY    39  39 100 CALM      30.08S FOG
MIDDLESBORO    CLOUDY    41  41 100 CALM      30.09F
MONTICELLO     FOG       43  41  93 CALM      30.09S VSB 3/4
$$




USA.gov is the U.S. government's official web portal to all federal, state and local government web resources and services.